Noatak, AK

1:04 PM AKDT on June 22, 2017 (GMT -0800)
Noatak

Weather History for PAWN - May, 2013

Change the Weather History Date:

Thursday, May 16, 2013

  Actual Average Record
Temperature  
Mean Temperature 17 °F -  
Max Temperature 24 °F 41 °F 57 °F (2016)
Min Temperature 10 °F 25 °F 10 °F (2013)
Degree Days  
Heating Degree Days 48    
Moisture  
Dew Point 12 °F    
Average Humidity 79    
Maximum Humidity 86    
Minimum Humidity 67    
Precipitation  
Precipitation 0.00 in - - ()
Sea Level Pressure  
Sea Level Pressure 29.40 in    
Wind  
Wind Speed 17 mph (SSE)    
Max Wind Speed 26 mph    
Max Gust Speed 30 mph    
Visibility 3 miles    
Events      
Averages and records for this station are not official NWS values.
T = Trace of Precipitation, MM = Missing Value Source: NWS Daily Summary

Daily Weather History Graph

Daily Weather History Graph

Search for Another Location

Airport or City:

Trip Planner

Search our weather history database for the weather conditions in past years. The results will help you decide how hot, cold, wet, or windy it might be!

Date:

Astronomy

May. 16, 2013 Rise Set
Actual Time 4:39 AM AKDT 1:01 AM AKDT
Civil Twilight Sun does not set Sun does not set
Nautical Twilight Sun does not set Sun does not set
Astronomical Twilight Sun does not set Sun does not set
Moon 11:50 AM AKDT (5/16) 4:06 AM AKDT (5/16)
Length of Visible Light 24h 00m
Length of Day
20h 21m
Waxing Crescent, 37% of the Moon is Illuminated
May 16
Waxing Crescent
May 17
First Quarter
May 24
Full
May 31
Last Quarter
Jun 8
New

Hourly Weather History & Observations

Time (AKDT) Temp. Windchill Dew Point Humidity Pressure Visibility Wind Dir Wind Speed Gust Speed Precip Events Conditions
12:16 AM 24.8 °F 11.1 °F 19.4 °F 80% 29.42 in 5.0 mi SE 18.4 mph 26.5 mph N/A   Overcast
12:36 AM 24.8 °F 11.1 °F 19.4 °F 80% 29.42 in 3.0 mi ESE 18.4 mph 21.9 mph N/A   Overcast
12:56 AM 24.8 °F 12.4 °F 19.4 °F 80% 29.41 in 2.5 mi ESE 15.0 mph 23.0 mph N/A   Overcast
1:16 AM 24.8 °F 11.9 °F 19.4 °F 80% 29.41 in 2.5 mi ESE 16.1 mph 23.0 mph N/A   Overcast
1:36 AM 24.8 °F 11.1 °F 19.4 °F 80% 29.40 in 2.0 mi ESE 18.4 mph 25.3 mph N/A   Overcast
1:56 AM 24.8 °F 10.7 °F 19.4 °F 80% 29.39 in 1.5 mi ESE 19.6 mph 26.5 mph N/A   Overcast
2:16 AM 24.8 °F 10.7 °F 19.4 °F 80% 29.38 in 1.2 mi ESE 19.6 mph 26.5 mph N/A   Overcast
2:36 AM 24.8 °F 11.9 °F 19.4 °F 80% 29.37 in 2.0 mi ESE 16.1 mph 26.5 mph N/A   Overcast
2:56 AM 24.8 °F 11.1 °F 19.4 °F 80% 29.36 in 1.8 mi ESE 18.4 mph 24.2 mph N/A   Overcast
3:16 AM 24.8 °F 11.5 °F 19.4 °F 80% 29.36 in 2.0 mi ESE 17.3 mph 21.9 mph N/A   Overcast
3:36 AM 23.0 °F 8.7 °F 19.4 °F 86% 29.36 in 2.0 mi ESE 18.4 mph - N/A   Overcast
3:56 AM 23.0 °F 9.2 °F 19.4 °F 86% 29.35 in 2.5 mi ESE 17.3 mph - N/A   Overcast
4:16 AM 23.0 °F 9.2 °F 19.4 °F 86% 29.34 in 1.2 mi East 17.3 mph - N/A   Overcast
4:36 AM 23.0 °F 9.2 °F 19.4 °F 86% 29.33 in 1.2 mi East 17.3 mph 21.9 mph N/A   Overcast
4:56 AM 23.0 °F 9.2 °F 19.4 °F 86% 29.32 in 1.2 mi East 17.3 mph 23.0 mph N/A   Overcast
5:16 AM 23.0 °F 8.7 °F 19.4 °F 86% 29.32 in 0.5 mi East 18.4 mph 23.0 mph N/A   Overcast
5:36 AM 23.0 °F 9.6 °F 19.4 °F 86% 29.31 in 2.5 mi ESE 16.1 mph 24.2 mph N/A   Overcast
5:56 AM 23.0 °F 8.3 °F 19.4 °F 86% 29.30 in 4.0 mi East 19.6 mph 25.3 mph N/A   Overcast
6:16 AM 24.8 °F 10.3 °F 19.4 °F 80% 29.29 in 2.0 mi East 20.7 mph 27.6 mph N/A   Overcast
6:36 AM 24.8 °F 11.1 °F 19.4 °F 80% 29.29 in 1.8 mi East 18.4 mph 25.3 mph N/A   Overcast
6:56 AM 24.8 °F 11.5 °F 19.4 °F 80% 29.28 in 1.2 mi ESE 17.3 mph 21.9 mph N/A   Overcast
7:16 AM 24.8 °F 12.9 °F 19.4 °F 80% 29.27 in 1.2 mi East 13.8 mph 20.7 mph N/A   Overcast
7:36 AM 24.8 °F 11.1 °F 19.4 °F 80% 29.26 in 1.0 mi ESE 18.4 mph 23.0 mph N/A   Overcast
7:56 AM 24.8 °F 11.5 °F 21.2 °F 86% 29.26 in 1.2 mi ESE 17.3 mph 21.9 mph N/A   Overcast
8:16 AM 24.8 °F 10.7 °F 21.2 °F 86% 29.25 in 1.5 mi SE 19.6 mph 26.5 mph N/A   Overcast
8:36 AM 24.8 °F 13.4 °F 19.4 °F 80% 29.26 in 2.0 mi SSE 12.7 mph 19.6 mph N/A   Overcast
8:56 AM 21.2 °F 8.3 °F 17.6 °F 86% 29.27 in 3.0 mi SSE 13.8 mph - N/A   Overcast
9:16 AM 19.4 °F 4.5 °F 14.0 °F 80% 29.28 in 3.0 mi SSE 17.3 mph - N/A   Overcast
9:36 AM 17.6 °F 5.0 °F 12.2 °F 79% 29.29 in 2.5 mi SSE 11.5 mph - N/A   Overcast
9:56 AM 17.6 °F 2.7 °F 10.4 °F 73% 29.29 in 1.8 mi SSE 16.1 mph - N/A   Overcast
10:16 AM 15.8 °F 1.4 °F 10.4 °F 79% 29.30 in 3.0 mi South 13.8 mph 20.7 mph N/A   Overcast
10:36 AM 15.8 °F 0.3 °F 8.6 °F 73% 29.30 in 5.0 mi SE 16.1 mph 21.9 mph N/A   Overcast
10:56 AM 15.8 °F -0.2 °F 8.6 °F 73% 29.32 in 10.0 mi SSE 17.3 mph - N/A   Overcast
11:16 AM 14.0 °F -2.0 °F 6.8 °F 73% 29.32 in 10.0 mi SSE 16.1 mph 23.0 mph N/A   Overcast
11:36 AM 14.0 °F -2.5 °F 6.8 °F 73% 29.34 in 7.0 mi SE 17.3 mph - N/A   Overcast
11:56 AM 12.2 °F -4.8 °F 6.8 °F 79% 29.35 in 8.0 mi SE 17.3 mph 25.3 mph N/A   Overcast
12:16 PM 12.2 °F -5.8 °F 6.8 °F 79% 29.35 in 3.0 mi SE 19.6 mph 25.3 mph N/A   Overcast
12:36 PM 14.0 °F -4.3 °F 5.0 °F 67% 29.36 in 5.0 mi SSE 21.9 mph 27.6 mph N/A   Overcast
12:56 PM 12.2 °F -6.7 °F 6.8 °F 79% 29.36 in 1.8 mi SSE 21.9 mph 27.6 mph N/A   Overcast
1:16 PM 12.2 °F -8.2 °F 5.0 °F 73% 29.37 in 2.0 mi SSE 26.5 mph - N/A   Overcast
1:36 PM 12.2 °F -5.8 °F 5.0 °F 73% 29.39 in 3.0 mi SE 19.6 mph 27.6 mph N/A   Overcast
1:56 PM 12.2 °F -6.7 °F 5.0 °F 73% 29.40 in 4.0 mi SSE 21.9 mph 29.9 mph N/A   Overcast
2:16 PM 14.0 °F -3.9 °F 6.8 °F 73% 29.41 in 6.0 mi SSE 20.7 mph 26.5 mph N/A   Overcast
2:36 PM 14.0 °F -3.9 °F 5.0 °F 67% 29.41 in 5.0 mi SSE 20.7 mph 26.5 mph N/A   Overcast
2:56 PM 12.2 °F -7.1 °F 3.2 °F 67% 29.42 in 7.0 mi SSE 23.0 mph 29.9 mph N/A   Mostly Cloudy
3:16 PM 12.2 °F -7.1 °F 6.8 °F 79% 29.42 in 2.0 mi South 23.0 mph 27.6 mph N/A   Overcast
3:36 PM 14.0 °F -3.0 °F 6.8 °F 73% 29.43 in 3.0 mi South 18.4 mph 23.0 mph N/A   Overcast
3:56 PM 14.0 °F -3.4 °F 5.0 °F 67% 29.44 in 2.0 mi South 19.6 mph 27.6 mph N/A   Overcast
4:16 PM 14.0 °F -2.5 °F 6.8 °F 73% 29.44 in 1.8 mi South 17.3 mph 27.6 mph N/A   Overcast
4:36 PM 12.2 °F -5.3 °F 6.8 °F 79% 29.45 in 1.2 mi South 18.4 mph - N/A   Overcast
4:56 PM 12.2 °F -3.7 °F 6.8 °F 79% 29.46 in 2.5 mi South 15.0 mph - N/A   Mostly Cloudy
5:16 PM 12.2 °F -3.7 °F 6.8 °F 79% 29.46 in 2.0 mi South 15.0 mph 21.9 mph N/A   Overcast
5:36 PM 12.2 °F -3.1 °F 6.8 °F 79% 29.47 in 1.0 mi South 13.8 mph 21.9 mph N/A   Overcast
5:56 PM 12.2 °F -4.3 °F 6.8 °F 79% 29.47 in 1.0 mi South 16.1 mph - N/A   Overcast
6:16 PM 12.2 °F -3.1 °F 6.8 °F 79% 29.47 in 1.0 mi SSW 13.8 mph - N/A   Overcast
6:36 PM 12.2 °F -3.7 °F 6.8 °F 79% 29.48 in 2.5 mi South 15.0 mph 20.7 mph N/A   Mostly Cloudy
6:56 PM 12.2 °F -4.8 °F 6.8 °F 79% 29.48 in 3.0 mi SSW 17.3 mph 21.9 mph N/A   Overcast
7:16 PM 12.2 °F -3.1 °F 6.8 °F 79% 29.48 in 1.2 mi South 13.8 mph - N/A   Overcast
7:36 PM 12.2 °F -4.3 °F 6.8 °F 79% 29.50 in 1.8 mi SSW 16.1 mph - N/A   Overcast
7:56 PM 12.2 °F -3.1 °F 6.8 °F 79% 29.50 in 1.0 mi South 13.8 mph 19.6 mph N/A   Overcast
8:16 PM 12.2 °F -3.1 °F 6.8 °F 79% 29.51 in 1.2 mi SSW 13.8 mph 18.4 mph N/A   Overcast
8:36 PM 12.2 °F -2.5 °F 6.8 °F 79% 29.51 in 5.0 mi SSW 12.7 mph 18.4 mph N/A   Overcast
8:56 PM 12.2 °F -3.1 °F 6.8 °F 79% 29.52 in 5.0 mi South 13.8 mph 18.4 mph N/A   Mostly Cloudy
9:16 PM 12.2 °F -1.8 °F 6.8 °F 79% 29.53 in 1.8 mi SSW 11.5 mph - N/A   Overcast
9:36 PM 12.2 °F -1.8 °F 5.0 °F 73% 29.53 in 3.0 mi SSW 11.5 mph - N/A   Overcast
9:56 PM 10.4 °F -4.1 °F 6.8 °F 85% 29.54 in 6.0 mi SSW 11.5 mph - N/A   Overcast
10:16 PM 10.4 °F -3.3 °F 3.2 °F 73% 29.55 in 8.0 mi South 10.4 mph - N/A   Overcast
10:36 PM 10.4 °F -2.4 °F 6.8 °F 85% 29.55 in 3.0 mi SSW 9.2 mph - N/A   Mostly Cloudy
10:56 PM 10.4 °F -1.5 °F 5.0 °F 79% 29.55 in 10.0 mi SSW 8.1 mph - N/A   Overcast
11:16 PM 10.4 °F -2.4 °F 6.8 °F 85% 29.56 in 3.0 mi SSW 9.2 mph - N/A   Overcast
11:36 PM 10.4 °F -4.1 °F 5.0 °F 79% 29.57 in 10.0 mi SW 11.5 mph - N/A   Overcast
11:56 PM 10.4 °F -1.5 °F 5.0 °F 79% 29.57 in 4.0 mi SSW 8.1 mph - N/A   Overcast